Time,TemperatureF,DewpointF,PressureIn,WindDirection,WindDirectionDegrees,WindSpeedMPH,WindSpeedGustMPH,Humidity,HourlyPrecipIn,Conditions,Clouds,dailyrainin,SolarRadiationWatts/m^2,SoftwareType,DateUTC
2013-03-27 00:01:00,34.0,27.0,-100.00,NW,310,5.0,12.0,75,0.00,,,0.00,0.000000,,2013-03-27 04:01:00,
2013-03-27 00:33:00,34.0,27.0,-100.00,NW,310,5.0,12.0,75,0.00,,,0.00,0.000000,,2013-03-27 04:33:00,
2013-03-27 00:43:00,34.0,27.0,-100.00,NW,310,5.0,12.0,75,0.00,,,0.00,0.000000,,2013-03-27 04:43:00,
2013-03-27 00:53:00,34.0,27.0,-100.00,NW,310,5.0,12.0,75,0.00,,,0.00,0.000000,,2013-03-27 04:53:00,
2013-03-27 01:01:00,33.0,26.0,-100.00,NW,306,4.0,11.0,75,0.00,,,0.00,0.000000,,2013-03-27 05:01:00,
2013-03-27 01:23:00,33.0,26.0,-100.00,NW,306,4.0,11.0,75,0.00,,,0.00,0.000000,,2013-03-27 05:23:00,
2013-03-27 01:33:00,33.0,26.0,-100.00,NW,306,4.0,11.0,75,0.00,,,0.00,0.000000,,2013-03-27 05:33:00,
2013-03-27 01:42:00,33.0,26.0,-100.00,NW,306,4.0,11.0,75,0.00,,,0.00,0.000000,,2013-03-27 05:42:00,
2013-03-27 01:53:00,33.0,26.0,-100.00,NW,306,4.0,11.0,75,0.00,,,0.00,0.000000,,2013-03-27 05:53:00,
2013-03-27 02:01:00,31.0,24.0,-100.00,NW,310,5.0,10.0,75,0.00,,,0.00,0.000000,,2013-03-27 06:01:00,
2013-03-27 02:32:00,31.0,24.0,-100.00,NW,310,5.0,10.0,75,0.00,,,0.00,0.000000,,2013-03-27 06:32:00,
2013-03-27 02:42:00,31.0,24.0,-100.00,NW,310,5.0,10.0,75,0.00,,,0.00,0.000000,,2013-03-27 06:42:00,
2013-03-27 02:53:00,31.0,24.0,-100.00,NW,310,5.0,10.0,75,0.00,,,0.00,0.000000,,2013-03-27 06:53:00,
2013-03-27 03:01:00,30.0,23.0,-100.00,WNW,300,4.0,10.0,75,0.00,,,0.00,0.000000,,2013-03-27 07:01:00,
2013-03-27 03:32:00,30.0,23.0,-100.00,WNW,300,4.0,10.0,75,0.00,,,0.00,0.000000,,2013-03-27 07:32:00,
2013-03-27 03:43:00,30.0,23.0,-100.00,WNW,300,4.0,10.0,75,0.00,,,0.00,0.000000,,2013-03-27 07:43:00,
2013-03-27 03:54:00,30.0,23.0,-100.00,WNW,300,4.0,10.0,75,0.00,,,0.00,0.000000,,2013-03-27 07:54:00,
2013-03-27 04:01:00,29.0,22.0,-100.00,WNW,299,4.0,11.0,75,0.00,,,0.00,0.000000,,2013-03-27 08:01:00,
2013-03-27 04:32:00,29.0,22.0,-100.00,WNW,299,4.0,11.0,75,0.00,,,0.00,0.000000,,2013-03-27 08:32:00,
2013-03-27 04:43:00,29.0,22.0,-100.00,WNW,299,4.0,11.0,75,0.00,,,0.00,0.000000,,2013-03-27 08:43:00,
2013-03-27 04:52:00,29.0,22.0,-100.00,WNW,299,4.0,11.0,75,0.00,,,0.00,0.000000,,2013-03-27 08:52:00,
2013-03-27 05:01:00,29.0,22.0,-100.00,WNW,296,4.0,11.0,75,0.00,,,0.00,0.000000,,2013-03-27 09:01:00,
2013-03-27 05:33:00,29.0,22.0,-100.00,WNW,296,4.0,11.0,75,0.00,,,0.00,0.000000,,2013-03-27 09:33:00,
2013-03-27 05:42:00,29.0,22.0,-100.00,WNW,296,4.0,11.0,75,0.00,,,0.00,0.000000,,2013-03-27 09:42:00,
2013-03-27 05:52:00,29.0,22.0,-100.00,WNW,296,4.0,11.0,75,0.00,,,0.00,0.000000,,2013-03-27 09:52:00,
2013-03-27 06:01:00,28.0,21.0,-100.00,WNW,293,4.0,10.0,76,0.00,,,0.00,0.000000,,2013-03-27 10:01:00,
2013-03-27 06:32:00,28.0,21.0,-100.00,WNW,293,4.0,10.0,76,0.00,,,0.00,0.000000,,2013-03-27 10:32:00,
2013-03-27 06:42:00,28.0,21.0,-100.00,WNW,293,4.0,10.0,76,0.00,,,0.00,0.000000,,2013-03-27 10:42:00,
2013-03-27 06:53:00,28.0,21.0,-100.00,WNW,293,4.0,10.0,76,0.00,,,0.00,0.000000,,2013-03-27 10:53:00,
2013-03-27 07:01:00,28.0,21.0,-100.00,WNW,289,5.0,11.0,76,0.00,,,0.00,0.000000,,2013-03-27 11:01:00,
2013-03-27 07:32:00,28.0,21.0,-100.00,WNW,289,5.0,11.0,76,0.00,,,0.00,0.000000,,2013-03-27 11:32:00,
2013-03-27 07:42:00,28.0,21.0,-100.00,WNW,289,5.0,11.0,76,0.00,,,0.00,0.000000,,2013-03-27 11:42:00,
2013-03-27 07:53:00,28.0,21.0,-100.00,WNW,289,5.0,11.0,76,0.00,,,0.00,0.000000,,2013-03-27 11:53:00,
2013-03-27 08:01:00,29.0,22.0,-100.00,WNW,294,5.0,14.0,76,0.00,,,0.00,13.000000,,2013-03-27 12:01:00,
2013-03-27 08:32:00,29.0,22.0,-100.00,WNW,294,5.0,14.0,76,0.00,,,0.00,13.000000,,2013-03-27 12:32:00,
2013-03-27 08:43:00,29.0,22.0,-100.00,WNW,294,5.0,14.0,76,0.00,,,0.00,13.000000,,2013-03-27 12:43:00,
2013-03-27 08:52:00,29.0,22.0,-100.00,WNW,294,5.0,14.0,76,0.00,,,0.00,13.000000,,2013-03-27 12:52:00,
2013-03-27 09:01:00,30.0,23.0,-100.00,NW,312,7.0,20.0,76,0.00,,,0.00,106.000000,,2013-03-27 13:01:00,
2013-03-27 09:33:00,30.0,23.0,-100.00,NW,312,7.0,20.0,76,0.00,,,0.00,106.000000,,2013-03-27 13:33:00,
2013-03-27 09:42:00,30.0,23.0,-100.00,NW,312,7.0,20.0,76,0.00,,,0.00,106.000000,,2013-03-27 13:42:00,
2013-03-27 09:53:00,30.0,23.0,-100.00,NW,312,7.0,20.0,76,0.00,,,0.00,106.000000,,2013-03-27 13:53:00,
2013-03-27 10:01:00,34.0,27.0,-100.00,NW,321,9.0,19.0,75,0.00,,,0.00,254.000000,,2013-03-27 14:01:00,
2013-03-27 10:22:00,34.0,27.0,-100.00,NW,321,9.0,19.0,75,0.00,,,0.00,254.000000,,2013-03-27 14:22:00,
2013-03-27 10:32:00,34.0,27.0,-100.00,NW,321,9.0,19.0,75,0.00,,,0.00,254.000000,,2013-03-27 14:32:00,
2013-03-27 10:42:00,34.0,27.0,-100.00,NW,321,9.0,19.0,75,0.00,,,0.00,254.000000,,2013-03-27 14:42:00,
2013-03-27 10:52:00,34.0,27.0,-100.00,NW,321,9.0,19.0,75,0.00,,,0.00,254.000000,,2013-03-27 14:52:00,
2013-03-27 11:01:00,36.0,29.0,-100.00,NW,314,10.0,21.0,75,0.00,,,0.00,550.000000,,2013-03-27 15:01:00,
2013-03-27 11:33:00,36.0,29.0,-100.00,NW,314,10.0,21.0,75,0.00,,,0.00,550.000000,,2013-03-27 15:33:00,
2013-03-27 11:43:00,36.0,29.0,-100.00,NW,314,10.0,21.0,75,0.00,,,0.00,550.000000,,2013-03-27 15:43:00,
2013-03-27 11:53:00,36.0,29.0,-100.00,NW,314,10.0,21.0,75,0.00,,,0.00,550.000000,,2013-03-27 15:53:00,
2013-03-27 14:01:00,42.0,34.0,-100.00,NW,314,10.0,21.0,72,-99.99,,,0.00,733.000000,,2013-03-27 18:01:00,
2013-03-27 14:33:00,42.0,34.0,-100.00,NW,314,10.0,21.0,72,-99.99,,,0.00,733.000000,,2013-03-27 18:33:00,
2013-03-27 14:42:00,42.0,34.0,-100.00,NW,314,10.0,21.0,72,-99.99,,,0.00,733.000000,,2013-03-27 18:42:00,
2013-03-27 14:53:00,42.0,34.0,-100.00,NW,314,10.0,21.0,72,-99.99,,,0.00,733.000000,,2013-03-27 18:53:00,
2013-03-27 15:01:00,45.0,36.0,-100.00,NW,314,11.0,23.0,71,0.00,,,0.00,672.000000,,2013-03-27 19:01:00,
2013-03-27 15:42:00,45.0,36.0,-100.00,NW,314,11.0,23.0,71,0.00,,,0.00,672.000000,,2013-03-27 19:42:00,
2013-03-27 15:52:00,45.0,36.0,-100.00,NW,314,11.0,23.0,71,0.00,,,0.00,672.000000,,2013-03-27 19:52:00,
2013-03-27 16:01:00,44.0,35.0,-100.00,NW,322,10.0,27.0,70,0.00,,,0.00,529.000000,,2013-03-27 20:01:00,
2013-03-27 16:32:00,44.0,35.0,-100.00,NW,322,10.0,27.0,70,0.00,,,0.00,529.000000,,2013-03-27 20:32:00,
2013-03-27 16:43:00,44.0,35.0,-100.00,NW,322,10.0,27.0,70,0.00,,,0.00,529.000000,,2013-03-27 20:43:00,
2013-03-27 16:52:00,44.0,35.0,-100.00,NW,322,10.0,27.0,70,0.00,,,0.00,529.000000,,2013-03-27 20:52:00,
2013-03-27 17:01:00,43.0,34.0,-100.00,WNW,296,10.0,25.0,70,0.00,,,0.00,311.000000,,2013-03-27 21:01:00,
2013-03-27 17:32:00,43.0,34.0,-100.00,WNW,296,10.0,25.0,70,0.00,,,0.00,311.000000,,2013-03-27 21:32:00,
2013-03-27 17:44:00,43.0,34.0,-100.00,WNW,296,10.0,25.0,70,0.00,,,0.00,311.000000,,2013-03-27 21:44:00,
2013-03-27 17:52:00,43.0,34.0,-100.00,WNW,296,10.0,25.0,70,0.00,,,0.00,311.000000,,2013-03-27 21:52:00,
2013-03-27 18:01:00,43.0,34.0,-100.00,NW,307,8.0,23.0,69,0.00,,,0.00,167.000000,,2013-03-27 22:01:00,
2013-03-27 18:23:00,43.0,34.0,-100.00,NW,307,8.0,23.0,69,0.00,,,0.00,167.000000,,2013-03-27 22:23:00,
2013-03-27 18:33:00,43.0,34.0,-100.00,NW,307,8.0,23.0,69,0.00,,,0.00,167.000000,,2013-03-27 22:33:00,
2013-03-27 18:42:00,43.0,34.0,-100.00,NW,307,8.0,23.0,69,0.00,,,0.00,167.000000,,2013-03-27 22:42:00,
2013-03-27 18:53:00,43.0,34.0,-100.00,NW,307,8.0,23.0,69,0.00,,,0.00,167.000000,,2013-03-27 22:53:00,
2013-03-27 19:01:00,42.0,33.0,-100.00,WNW,298,7.0,20.0,69,0.00,,,0.00,92.000000,,2013-03-27 23:01:00,
2013-03-27 19:32:00,42.0,33.0,-100.00,WNW,298,7.0,20.0,69,0.00,,,0.00,92.000000,,2013-03-27 23:32:00,
2013-03-27 19:43:00,42.0,33.0,-100.00,WNW,298,7.0,20.0,69,0.00,,,0.00,92.000000,,2013-03-27 23:43:00,
2013-03-27 19:52:00,42.0,33.0,-100.00,WNW,298,7.0,20.0,69,0.00,,,0.00,92.000000,,2013-03-27 23:52:00,